Athens Eleftherios, Greece

12:52 PM EEST on June 26, 2017 (GMT +0300)
Eleftherios Venizelos International

Weather History for LGAV - November, 2012

Change the Weather History Date:

Wednesday, November 21, 2012

  Actual Average (LGAT) Record (LGAT)
Temperature  
Mean Temperature 60 °F -  
Max Temperature 62 °F 63 °F 73 °F (2015)
Min Temperature 59 °F 52 °F 48 °F (2001)
Degree Days  
Heating Degree Days 4    
Growing Degree Days 10 (Base 50)    
Moisture  
Dew Point 56 °F    
Average Humidity 88    
Maximum Humidity 94    
Minimum Humidity 82    
Precipitation  
Precipitation 0.00 in - - ()
Sea Level Pressure  
Sea Level Pressure 30.02 in    
Wind  
Wind Speed 3 mph ()    
Max Wind Speed 17 mph    
Max Gust Speed -    
Visibility 4.9 miles    
Events Rain    
Averages and records for this station are not official NWS values.
T = Trace of Precipitation, MM = Missing Value Source: Averaged Metar Reports

Daily Weather History Graph

Daily Weather History Graph

Search for Another Location

Airport or City:

Trip Planner

Search our weather history database for the weather conditions in past years. The results will help you decide how hot, cold, wet, or windy it might be!

Date:

Astronomy

Nov. 21, 2012 Rise Set
Actual Time 7:11 AM EET 5:08 PM EET
Civil Twilight 6:42 AM EET 5:37 PM EET
Nautical Twilight 6:10 AM EET 6:09 PM EET
Astronomical Twilight 5:39 AM EET 6:40 PM EET
Moon 1:09 PM EET (11/21) 12:17 AM EET (11/21)
Length of Visible Light 10h 54m
Length of Day
9h 57m
First Quarter, 58% of the Moon is Illuminated
Nov 21
First Quarter
Nov 28
Full
Dec 6
Last Quarter
Dec 13
New
Dec 20
First Quarter

Hourly Weather History & Observations

Time (EET) Temp. Dew Point Humidity Pressure Visibility Wind Dir Wind Speed Gust Speed Precip Events Conditions
12:20 AM 59.0 °F 55.4 °F 88% 30.01 in 6.2 mi West 3.5 mph - N/A   Mostly Cloudy
12:50 AM 59.0 °F 55.4 °F 88% 30.01 in 6.2 mi West 2.3 mph - N/A   Mostly Cloudy
1:20 AM 59.0 °F 55.4 °F 88% 30.01 in 6.2 mi Calm Calm - N/A   Mostly Cloudy
1:50 AM 59.0 °F 55.4 °F 88% 30.01 in 6.2 mi Variable 3.5 mph - N/A   Mostly Cloudy
2:20 AM 59.0 °F 55.4 °F 88% 30.01 in 6.2 mi NNE 2.3 mph - N/A Rain Light Rain
2:50 AM 59.0 °F 55.4 °F 88% 30.01 in 6.2 mi Variable 1.2 mph - N/A Rain Light Rain
3:20 AM 59.0 °F 55.4 °F 88% 29.98 in 6.2 mi Variable 2.3 mph - N/A Rain Light Rain
3:50 AM 59.0 °F 55.4 °F 88% 29.98 in 5.0 mi WSW 1.2 mph - N/A Rain Light Rain
4:20 AM 59.0 °F 55.4 °F 88% 29.98 in 5.0 mi West 1.2 mph - N/A Rain Light Rain
4:50 AM 59.0 °F 55.4 °F 88% 30.01 in 5.0 mi Calm Calm - N/A Rain Light Rain
5:20 AM 59.0 °F 55.4 °F 88% 30.01 in 4.3 mi WSW 1.2 mph - N/A Rain Light Rain
5:50 AM 59.0 °F 55.4 °F 88% 30.01 in 4.3 mi Variable 1.2 mph - N/A Rain Light Rain
6:20 AM 59.0 °F 57.2 °F 94% 30.01 in 4.3 mi Calm Calm - N/A Rain Light Rain
6:50 AM 59.0 °F 55.4 °F 88% 30.01 in 5.0 mi NNE 1.2 mph - N/A Rain Light Rain
7:20 AM 59.0 °F 55.4 °F 88% 30.01 in 3.7 mi Calm Calm - N/A Rain Light Rain
7:50 AM 59.0 °F 55.4 °F 88% 30.01 in 2.5 mi Calm Calm - N/A Rain Light Rain
8:20 AM 59.0 °F 55.4 °F 88% 30.04 in 3.1 mi Calm Calm - N/A Rain Light Rain
8:50 AM 59.0 °F 55.4 °F 88% 30.04 in 3.1 mi Calm Calm - N/A Rain Light Rain
9:20 AM 59.0 °F 55.4 °F 88% 30.04 in 3.1 mi NW 1.2 mph - N/A Rain Light Rain
9:50 AM 59.0 °F 55.4 °F 88% 30.04 in 3.7 mi Calm Calm - N/A Rain Light Rain
10:20 AM 59.0 °F 55.4 °F 88% 30.04 in 3.7 mi Calm Calm - N/A Rain Light Rain
10:50 AM 60.8 °F 57.2 °F 88% 30.04 in 2.5 mi WNW 2.3 mph - N/A Rain Light Rain
11:20 AM 59.0 °F 55.4 °F 88% 30.01 in 3.1 mi Variable 1.2 mph - N/A Rain Light Rain
11:50 AM 59.0 °F 55.4 °F 88% 30.01 in 2.5 mi North 1.2 mph - N/A Rain Light Rain
12:20 PM 59.0 °F 55.4 °F 88% 30.01 in 2.5 mi Variable 1.2 mph - N/A Rain Rain
12:50 PM 59.0 °F 55.4 °F 88% 30.01 in 2.5 mi South 4.6 mph - N/A Rain Rain
1:20 PM 59.0 °F 55.4 °F 88% 30.01 in 2.5 mi Variable 3.5 mph - N/A Rain Rain
1:50 PM 59.0 °F 55.4 °F 88% 30.01 in 5.0 mi NNE 5.8 mph - N/A Rain Light Rain
2:20 PM 60.8 °F 57.2 °F 88% 29.98 in 6.2 mi North 8.1 mph - N/A   Mostly Cloudy
2:50 PM 60.8 °F 55.4 °F 82% 29.98 in 6.2 mi NNE 8.1 mph - N/A   Mostly Cloudy
3:20 PM 62.6 °F 59.0 °F 88% 30.01 in 6.2 mi NE 9.2 mph - N/A   Mostly Cloudy
3:50 PM 60.8 °F 57.2 °F 88% 30.01 in 4.3 mi NNE 12.7 mph - N/A Rain Light Rain
4:20 PM 60.8 °F 57.2 °F 88% 30.01 in 5.6 mi ENE 5.8 mph - N/A Rain Light Rain
4:50 PM 60.8 °F 57.2 °F 88% 30.01 in 6.2 mi NNE 10.4 mph - N/A   Mostly Cloudy
5:20 PM 59.0 °F 57.2 °F 94% 30.01 in 6.2 mi NNE 10.4 mph - N/A   Mostly Cloudy
5:50 PM 59.0 °F 55.4 °F 88% 30.01 in 6.2 mi North 6.9 mph - N/A Rain Light Rain
6:20 PM 59.0 °F 55.4 °F 88% 30.01 in 6.2 mi North 8.1 mph - N/A   Mostly Cloudy
6:50 PM 59.0 °F 55.4 °F 88% 30.01 in 6.2 mi North 8.1 mph - N/A   Mostly Cloudy
7:20 PM 59.0 °F 55.4 °F 88% 30.01 in 6.2 mi North 5.8 mph - N/A   Mostly Cloudy
7:50 PM 59.0 °F 55.4 °F 88% 30.01 in 6.2 mi North 2.3 mph - N/A   Mostly Cloudy
8:20 PM 59.0 °F 55.4 °F 88% 30.04 in 5.6 mi NNE 4.6 mph - N/A Rain Light Rain
8:50 PM 59.0 °F 55.4 °F 88% 30.04 in 6.2 mi North 10.4 mph - N/A   Mostly Cloudy
9:20 PM 59.0 °F 55.4 °F 88% 30.04 in 5.6 mi North 8.1 mph - N/A Rain Light Rain
9:50 PM 59.0 °F 55.4 °F 88% 30.04 in 6.2 mi North 8.1 mph - N/A   Mostly Cloudy
10:20 PM 59.0 °F 55.4 °F 88% 30.04 in 6.2 mi North 9.2 mph - N/A   Mostly Cloudy
11:20 PM 59.0 °F 55.4 °F 88% 30.04 in 3.1 mi NNE 17.3 mph - N/A Rain Heavy Rain
11:50 PM 59.0 °F 55.4 °F 88% 30.04 in 3.7 mi North 13.8 mph - N/A Rain Light Rain